Hourly Data Report for May 14, 2004

SHERBROOKE A
QUEBEC

45°26'00.000" N
71°41'00.000" W
241.40 m
7028124
71610
YSC

Download Data

Hourly Data (May 2004)
Hourly Data Report for May 14, 2004
TIME
LST
Temp Definition
°C
Dew Point Definition
°C
Rel Hum Definition
%
Precip. Amount Definition
mm

Wind Dir Definition
10's deg

Wind Spd Definition
km/h
Visibility Definition
km
Stn Press Definition
kPa
Hmdx Definition


Wind Chill Definition


Weather Definition


00:00 10.5 7.8 83     0 15.0 99.28      
01:00 9.9 7.3 84   6 4 15.0 99.27      
02:00 9.9 7.1 83   13 9 15.0 99.29      
03:00 10.5 6.6 77   14 9 15.0 99.27      
04:00 10.0 6.4 78   13 7 15.0 99.26      
05:00 10.3 6.5 77   13 7 15.0 99.28      
06:00 13.6 7.8 68   11 6 15.0 99.29      
07:00 16.3 8.6 60   10 4 24.1 99.28     Mainly Clear
08:00 19.1 10.7 58   15 6 24.1 99.26     Mainly Clear
09:00 21.9 12.6 56   17 6 24.1 99.18     Mainly Clear
10:00 24.4 14.5 54   25 13 19.3 99.12 28   Mostly Cloudy
11:00 26.0 15.5 52   25 13 19.3 99.06 30   Mostly Cloudy
12:00 27.2 16.1 51   25 13 19.3 99.01 32   Mainly Clear
13:00 28.4 15.8 46   20 9 19.3 98.94 33   Mainly Clear
14:00 28.9 15.7 45   24 17 19.3 98.87 33   Mainly Clear
15:00 29.3 15.2 42   19 13 19.3 98.77 33   Mainly Clear
16:00 29.6 15.2 42   22 13 19.3 98.70 34   Mainly Clear
17:00 27.5 15.7 49   23 9 15.0 98.66 32    
18:00 26.5 16.2 53   22 6 15.0 98.66 31    
19:00 24.0 16.6 63   16 7 15.0 98.69 29    
20:00 23.5 15.7 62   23 7 15.0 98.73 28    
21:00 22.5 14.8 62   21 6 15.0 98.72 26    
22:00 19.9 14.8 72   16 7 12.9 98.66      
23:00 21.7 14.8 65   20 7 15.0 98.66 26    

Notes on Data Quality.

Legend

  • E = Estimated
  • M = Missing
  • NA = Not Available*
  • [empty] = Indicates an unobserved value
Date modified: